Location: Cheching
(60.0667°N, 164.2167°W)
Time: 14:12:21
(UTC+00:00)

NOAA 19 - Pass Details

Date: 21 January 2021
Orbit: 840 x 862 km, 99.2° (Epoch: 01 March)

Event Time Altitude Azimuth Distance (km) Brightness Sun altitude
Rises 06:53:48 0° 234° (SW) 3,435 8.9 -30.2°
Reaches altitude 10° 06:58:40 10° 272° (W) 2,501 8.5 -30.8°
Maximum altitude 06:59:48 11° 284° (WNW) 2,460 8.5 -30.9°
Drops below altitude 10° 07:00:57 10° 296° (WNW) 2,502 8.5 -31.0°
Sets 07:05:50 0° 334° (NNW) 3,440 8.9 -31.6°
